Flag for U.S.A. Weather past 2 weeks in Boston, Massachusetts, U.S.A.

Now
87 °F

Scattered clouds.


Feels Like: 89 °F
Forecast: 74 / 86 °F
Wind: 8 mph from Southwest

Location: Logan International Airport

Current Time: Jul 29, 2015 at 10:16:14 PM

Latest Report: Jul 29, 2015 at 8:54 PM


Visibility: 10 mi

Pressure: 29.88 "Hg

Humidity: 50%

Dew point: 66 °F

Location of BostonLocation

Historic Weather in Boston — Graph

°F

Boston temperature yesterday

Maximum temperature yesterday: 83 °F (at 11:54 AM)
Minimum temperature yesterday: 70 °F (at 3:54 AM)
Average temperature yesterday: 76 °F

Past Weeks' High & Low Weather Summary

 TemperatureHumidityPressure
High92 °F (Jul 29, 5:54 PM)100% (Jul 15, 6:54 AM)30.12 "Hg (Jul 15, 6:54 AM)
Low59 °F (Jul 16, 5:54 AM)30% (Jul 22, 1:54 PM)29.54 "Hg (Jul 21, 6:54 PM)
Average73 °F70%29.87 "Hg
* Reported Jul 14 8:54 PM — Jul 29 8:54 PM, Boston, Weather by CustomWeather, © 2015

Note: Actual official high and low records may vary slightly from our data, if they occured in-between our weather recording intervals... More about our weather records

Advertising

Boston weather history for previous 24 hours

 ConditionsComfort  
Time TempWeatherWind HumidityBarometerVisibility
8:54 PM
Wed, Jul 29
87 °FScattered clouds.8 mph50%29.88 "Hg10 mi
7:54 PM90 °FScattered clouds.13 mph45%29.87 "Hg10 mi
6:54 PM91 °FScattered clouds.7 mph42%29.87 "Hg10 mi
5:54 PM92 °FScattered clouds.6 mph41%29.87 "Hg10 mi
4:54 PM88 °FPartly sunny.7 mph48%29.87 "Hg10 mi
3:54 PM88 °FBroken clouds.7 mph52%29.88 "Hg10 mi
2:54 PM87 °FBroken clouds.12 mph50%29.90 "Hg10 mi
1:54 PM86 °FBroken clouds.10 mph49%29.91 "Hg10 mi
12:54 PM85 °FBroken clouds.8 mph50%29.92 "Hg10 mi
11:54 AM86 °FBroken clouds.9 mph46%29.93 "Hg10 mi
10:54 AM85 °FPartly sunny.5 mph53%29.95 "Hg10 mi
9:54 AM82 °FPartly sunny.6 mph65%29.96 "Hg10 mi
8:54 AM81 °FScattered clouds.5 mph65%29.96 "Hg10 mi
7:54 AM79 °FScattered clouds.3 mph65%29.96 "Hg10 mi
6:54 AM76 °FScattered clouds.3 mph74%29.95 "Hg10 mi
5:54 AM73 °FPassing clouds.6 mph81%29.95 "Hg10 mi
4:54 AM73 °FClear.6 mph84%29.94 "Hg10 mi
3:54 AM73 °FClear.6 mph84%29.93 "Hg10 mi
2:54 AM73 °FClear.No wind84%29.93 "Hg10 mi
1:54 AM71 °FClear.5 mph90%29.93 "Hg10 mi
12:54 AM73 °FClear.6 mph81%29.94 "Hg10 mi
11:54 PM
Tue, Jul 28
76 °FClear.6 mph74%29.95 "Hg10 mi
10:54 PM74 °FClear.5 mph79%29.95 "Hg10 mi
Weather by CustomWeather, © 2015

See weather overviewHow to use our weather pages